Terminal Aerodrome Forecast
Issued by NWS Albuquerque, NM

Home | Current Version | Previous Version | Text Only | Print | Product List | Glossary On
Versions: 1 2 3 4 5 6 7 8 9 10 11 12 13 14 15 16 17 18 19 20 21 22 23 24
000
FTUS45 KABQ 271740
TAFABQ
TAF
KABQ 271740Z 2718/2818 23011KT P6SM FEW120
     FM272130 23012G22KT P6SM SCT130
     FM280300 20010KT P6SM SCT130
     FM280600 16008KT P6SM SKC
     FM281500 20006KT P6SM SKC
     FM281700 25010KT P6SM SKC=

USA.gov is the U.S. government's official web portal to all federal, state and local government web resources and services.